{"data":{"norad_id":57264,"intl_designator":"2023-094AY","name":"STARLINK-5858","alt_names":[],"object_type":"PAYLOAD","status":"ACTIVE","operator":null,"country":"US","launch_date":"2023-07-07","launch_site_code":"AFWTR","launch_vehicle":null,"mission":null,"orbit_class":"UNKNOWN","rcs_meters":null,"size_class":null,"mass_kg":null,"dimensions":null,"purposes":["comms"],"wikipedia_slug":null,"has_3d_model":false,"image_url":null,"decayed_at":null,"tle_current":{"epoch":"2026-09-20T22:49:29.734176Z","epoch_age_seconds":85270,"freshness":"FRESH","line1":"1 57264U 23094AY  26263.95103859 -.00001215  00000+0 -34651-4 0  9994","line2":"2 57264  43.0035 357.0661 0001379 264.2415  95.8279 15.27574868177102","mean_motion":15.27574868,"eccentricity":0.0001379,"inclination_deg":43.0035,"raan_deg":357.0661,"arg_perigee_deg":264.2415,"mean_anomaly_deg":95.8279,"bstar":-3.4651e-5,"rev_number":17710,"period_min":94.26706540972,"perigee_km":482.11830345514,"apogee_km":484.01062281867,"semimajor_km":6861.2014631369,"source":"CELESTRAK","updated_at":"2026-09-21T09:00:33.593936Z"}}}